Regional Weather Roundup
Issued by NWS

Home | Current Version | Previous Version | Graphics & Text | Print | Product List | Glossary On
Versions: 1 2 3 4 5 6 7 8 9 10 11 12 13 14 15 16 17 18 19 20 21 22 23 24 25 26 27
000
ASUS45 KBOU 120710
RWRCO

WEATHER ROUNDUP FOR COLORADO
NATIONAL WEATHER SERVICE DENVER/BOULDER CO
1200 AM MST TUE DEC 12 2017

NOTE: "FAIR" INDICATES FEW OR NO CLOUDS BELOW 12000 FEET WITH NO
SIGNIFICANT WEATHER AND/OR OBSTRUCTIONS TO VISIBILITY.

COZ001>005-013-030-031-120800-
...NORTHWEST COLORADO...

CITY           SKY/WX    TMP DP  RH WIND       PRES   REMARKS
CRAIG          FAIR       9   5  84 NW3       30.54S
HAYDEN         FAIR      20  11  68 SE6       30.55R WCI  12
MEEKER         FAIR      21   9  59 NE5       30.54R WCI  15
RABBIT EARS PA FAIR      28  10  47 W8        30.57S WCI  20
STEAMBOAT SPGS FAIR      21  11  67 CALM      30.54S
WALDEN         FAIR      10   3  72 SE7       30.56R WCI   0
$$

COZ006>008-011-120800-
...WEST CENTRAL VALLEYS...

CITY           SKY/WX    TMP DP  RH WIND       PRES   REMARKS
GRAND JUNCTION FAIR      27   2  34 E6        30.52R WCI  20
MONTROSE       FAIR      21   2  43 SE8       30.55R WCI  11
EAGLE          FAIR      14   8  77 CALM      30.61R
RIFLE          FAIR      23   5  46 CALM      30.54R
DELTA          FAIR      23  -3  32 CALM      30.54R
NUCLA          FAIR      28  -2  26 E7        30.55R WCI  21
$$

COZ017>023-064>068-120800-
...SOUTHWEST COLORADO...

CITY           SKY/WX    TMP DP  RH WIND       PRES   REMARKS
DURANGO        FAIR      17   1  49 NE3       30.47S
CORTEZ         FAIR      15   1  53 NE10      30.48R WCI   2
PAGOSA SPRINGS FAIR      26  -2  30 CALM      30.49S
TELLURIDE      FAIR      31   2  29 SE9       30.58R WCI  23
WOLF CREEK PAS FAIR      32  -8  18 CALM      30.67S
$$

COZ009-010-012-014-032>034-037-058>063-120800-
...CENTRAL COLORADO...

CITY           SKY/WX    TMP DP  RH WIND       PRES   REMARKS
ASPEN          FAIR      24  12  60 S7        30.53S WCI  16
BUENA VISTA    FAIR      25   5  42 CALM      30.52S
COPPER MTN     NOT AVBL
BERTHOUD PASS  FAIR      18   7  62 NW17G25   30.58S WCI   2
COTTONWOOD PAS FAIR      39   1  20 SE3       30.54S
GUNNISON       FAIR      11   2  67 CALM      30.59R
KREMMLING      FAIR      10   5  79 CALM      30.61S
LEADVILLE      FAIR      16   8  71 S3        30.56R
MONARCH PASS   FAIR      27   1  33 SW9       30.71S WCI  17
SALIDA         FAIR      28   4  35 W7        30.59S WCI  21
SUNLIGHT       FAIR      30  12  47 W6        30.64S WCI  24
WILKERSON PASS FAIR      30  -6  21 N6        30.59R WCI  24
$$

COZ069>075-120800-
...SAN LUIS VALLEY/SANGRE DE CRISTO MOUNTAINS...

CITY           SKY/WX    TMP DP  RH WIND       PRES   REMARKS
ALAMOSA        FAIR       9  -2  61 E3        30.50R
DEL NORTE      FAIR      29  -1  26 W16       30.50F WCI  18
LA VETA PASS   FAIR      32  -2  23 SW18        N/A  WCI  20
SAGUACHE       FAIR      28   3  34 NW12      30.50S WCI  18
$$

COZ035-036-038>040-120800-
...NORTHERN COLORADO FRONT RANGE...

CITY           SKY/WX    TMP DP  RH WIND       PRES   REMARKS
DENVER INTL AP FAIR      34   7  32 SW7       30.45F WCI  28
DMNS CITY PARK NOT AVBL
AURORA         CLEAR     29  10  45 S9        30.46F WCI  20
FRONT RANGE AP FAIR      28  10  46 S7        30.46S WCI  21
ERIE MUNI ARPT FAIR      26  11  52 S5        30.50F WCI  21
BOULDER MUN AP FAIR      36   9  32 SW3       30.44F
CENTENNIAL     FAIR      31  12  45 S6        30.45F WCI  25
BROOMFIELD     FAIR      36  10  35 SW7       30.45F
FORT COLLINS   FAIR      33  12  41 S9        30.44F WCI  25
LONGMONT       FAIR      28  11  50 CALM      30.47F
$$

COZ041-046-047-076>085-087-088-120800-
...PIKES PEAK/PALMER DIVIDE AND SOUTHERN FOOTHILLS...

CITY           SKY/WX    TMP DP  RH WIND       PRES   REMARKS
COLO. SPRINGS  FAIR      30   7  37 N3        30.48S
A. F. ACADEMY  FAIR      22   4  45 N12       30.46F WCI  10
SCHRIEVER AFB  FAIR      33   7  34 N3        30.48S
CHEYENNE MTN   FAIR      37   0  21 CALM      30.42F
ELLICOTT         N/A    N/A N/A N/A CALM      30.46S
FALCON         FAIR      25   7  46 NW5       30.48F WCI  19
FORT CARSON    FAIR      32   2  27 N6        30.46S WCI  26
LIMON          FAIR      23   7  50 W7        30.46F WCI  15
MONUMENT HILL  FAIR      23   9  54 S5        30.48S WCI  17
CANON CITY     FAIR      32   3  29 W10       30.46F WCI  24
WALSENBURG     FAIR      28   3  34 CALM      30.48S
TRINIDAD       FAIR      29   8  41 W10       30.48F WCI  20
$$

COZ042>045-048>051-090-091-120800-
...NORTHEAST COLORADO...

CITY           SKY/WX    TMP DP  RH WIND       PRES   REMARKS
GREELEY ARPT   FAIR      23  11  60 CALM      30.46S
AKRON          FAIR      25   9  50 W10       30.42R WCI  15
BURLINGTON     FAIR      17   7  64 W12       30.43F WCI   4
WRAY           FAIR      19  10  68 W6        30.43F WCI  11
YUMA           FAIR      19   9  63 W7        30.42S WCI  10
STERLING       FAIR      21  10  63 SE3       30.41F
HOLYOKE        FAIR      21  10  63 W8        30.43S WCI  12
FORT MORGAN    FAIR      27   7  42 W9        30.45S WCI  18
$$

COZ086-089-092>099-120800-
...SOUTHEAST COLORADO...

CITY           SKY/WX    TMP DP  RH WIND       PRES   REMARKS
PUEBLO         FAIR      20   2  45 W6        30.47F WCI  12
LA JUNTA       FAIR      26   6  42 W12       30.47F WCI  16
LAMAR          FAIR      24  10  55 SW7       30.45F WCI  16
SPRINGFIELD      N/A     22   8  55 NW9       30.46S WCI  12
$$




USA.gov is the U.S. government's official web portal to all federal, state and local government web resources and services.